Dewpoint
26 21 18 17 19 18 18 19 17 19 20 21 22 24 22 29 31 32 33 34 36 39 42 47 51 52 52 53 56 59 60 63 62 60 56 54 51 53 52 52 58 58 57 57
26 21 20 16 18 17 18 20 19 18 19 22 21 21 24 26 30 32 33 33 35 38 42 45 51 53 54 55 58 60 61 63 64 60 61 60 59 56 56 56 59 58 57 58
22 21 20 21 21 21 19 19 19 18 21 23 22 22 24 25 28 32 32 35 36 38 40 46 49 53 55 56 57 58 63 63 63 64 59 59 59 56 51 51 52 54 55 54
20 19 21 20 20 20 19 17 18 19 21 19 23 17 23 25 27 30 32 33 35 38 41 44 48 51 54 54 59 59 61 62 61 62 59 61 56 52 52 51 49 52 54 51
20 18 21 21 22 20 19 22 21 21 21 22 19 19 20 21 26 28 32 33 35 36 39 43 45 47 50 54 57 61 61 61 60 59 59 55 55 52 50 49 54 55 54 52
20 21 19 21 20 21 21 22 21 22 20 19 20 18 14 17 25 27 28 30 33 34 34 39 46 49 51 51 55 58 57 58 58 57 56 56 54 53 49 49 47 45 45 46
21 18 19 20 21 22 22 25 22 21 19 16 20 17 18 25 28 28 29 32 33 37 37 39 47 46 50 50 51 52 53 54 54 53 53 52 52 52 50 49 46 47 45 44
21 19 18 20 20 21 23 24 28 32 21 14 21 19 23 31 31 31 32 35 38 39 38 41 43 43 47 51 50 50 50 50 51 51 50 50 50 46 46 48 46 45 44 45
22 21 18 20 19 18 22 22 23 27 27 23 20 21 29 30 30 31 32 36 38 38 40 42 45 48 50 50 50 49 49 48 48 48 48 48 48 49 47 47 48 44 46 45
27 27 20 19 20 19 21 21 24 24 28 26 21 22 24 29 29 31 33 34 36 40 41 45 48 50 48 48 47 48 48 47 46 46 46 45 47 46 46 45 46 47 47 46
27 31 26 22 21 19 21 20 26 28 29 34 30 24 30 28 31 31 34 34 36 40 42 47 48 48 47 46 44 47 46 45 44 45 45 46 45 44 45 45 45 46 46 46
28 31 28 25 23 22 22 25 28 27 30 31 32 31 30 30 30 32 32 32 38 43 44 47 46 46 45 45 45 44 45 44 43 44 44 44 44 44 44 45 45 45 46 46
36 32 28 28 25 27 23 23 26 31 34 33 40 35 34 33 33 34 34 34 42 43 45 45 45 44 44 45 45 43 43 43 43 43 42 42 43 43 44 44 43 46 47 45
44 38 35 35 28 30 31 30 23 28 28 31 31 28 32 35 35 38 39 41 42 45 46 45 45 45 45 44 43 42 43 42 42 41 42 42 43 43 42 43 46 46 46 45
40 37 33 30 32 32 31 33 32 25 26 28 29 28 31 33 36 39 41 43 44 45 44 44 43 45 44 43 42 41 42 41 41 41 42 42 42 41 43 45 46 46 46 45
42 38 36 31 30 30 30 30 30 29 25 26 28 28 31 40 38 41 42 43 44 44 43 42 43 43 42 41 41 41 41 41 42 42 42 41 41 44 45 45 45 44 44 44
40 37 36 33 31 31 32 34 31 33 28 26 25 31 38 40 40 41 43 44 45 43 42 43 43 42 42 41 41 40 41 42 42 42 41 41 43 45 45 45 44 43 43 43
42 41 35 28 32 32 31 32 29 35 33 27 28 31 34 39 43 43 44 46 44 43 44 43 41 42 42 41 41 41 41 42 42 41 41 42 44 43 43 45 45 44 43 44
43 42 36 31 28 29 27 32 32 28 30 31 31 32 35 43 44 45 45 45 45 45 45 43 42 42 41 41 41 41 41 42 41 41 40 42 43 41 41 41 45 43 45 44
39 44 40 35 31 31 34 44 45 42 29 32 34 35 43 43 38 42 45 44 45 44 44 42 42 41 41 41 42 40 40 40 41 41 40 39 40 40 40 41 42 43 44 46
37 43 39 36 33 31 36 37 39 34 39 39 37 39 43 42 44 47 46 45 45 42 41 41 40 40 41 40 39 39 39 40 41 41 40 40 40 40 40 41 43 41 41 39
33 37 37 38 38 36 42 39 35 46 49 42 40 41 46 46 45 45 45 44 42 39 38 38 39 40 41 40 39 39 40 42 41 42 41 40 40 39 37 40 39 37 37 37
31 36 37 37 37 45 46 47 48 46 48 47 46 46 46 44 44 43 43 43 41 39 38 37 37 39 39 40 40 40 40 41 41 41 39 39 39 38 39 36 34 29 34 30
37 42 40 41 41 41 43 46 47 45 44 48 46 46 44 44 43 42 42 41 39 38 37 38 37 38 38 39 39 40 40 41 40 39 39 39 37 37 38 32 28 31 31 31
38 41 38 38 41 41 41 43 45 47 47 48 49 46 43 42 41 40 40 39 37 37 35 37 38 38 37 39 40 40 40 41 39 38 38 36 33 36 33 36 33 29 35 33
36 36 36 41 44 46 46 47 45 46 46 49 50 43 41 40 39 40 39 39 38 36 34 37 39 39 39 39 39 39 41 41 40 38 36 31 30 29 27 26 36 35 35 35
Lifted_Index
5 5 4 4 3 2 1 0 -0 -0 1 2 3 3 2 1 2 2 2 2 2 2 1 0 -0 -0 0 1 0 -0 -1 -1 -2 -1 -0 0 1 1 1 1 1 1 1 1
5 4 4 4 4 3 2 1 -0 -0 1 3 3 2 1 1 2 2 2 2 2 1 1 0 -0 -0 0 0 -0 -1 -1 -2 -2 -1 -0 0 0 1 1 1 1 1 2 2
4 4 4 4 4 4 3 2 1 0 1 2 2 1 0 0 1 2 2 1 1 1 1 0 -0 -0 -0 -0 -1 -1 -1 -2 -1 -1 0 1 1 1 2 2 2 3 3 4
4 4 4 5 4 4 3 2 2 1 1 2 1 1 0 -0 0 1 2 1 1 1 1 0 -0 -0 -0 -0 -1 -1 -1 -1 -0 1 1 2 2 3 3 4 4 4 5 5
4 4 4 4 4 3 3 3 3 3 2 2 1 0 -0 -0 0 1 2 1 1 1 1 0 -0 -0 -0 -0 -1 -1 -0 0 1 2 3 3 4 4 5 6 6 6 6 7
4 4 4 4 4 4 3 3 3 3 2 2 1 1 0 -0 0 1 1 2 1 1 1 0 -0 -0 -0 -0 -0 0 1 1 2 3 4 5 6 6 7 7 7 7 7 8
3 3 4 4 4 3 3 3 2 2 1 1 1 1 0 1 1 1 1 1 1 1 0 0 -0 -0 -0 0 1 1 2 3 4 5 5 6 7 8 8 8 8 8 8 8
1 2 3 4 4 3 2 2 1 0 0 0 0 0 0 1 1 1 1 1 1 0 0 0 0 0 0 1 2 3 4 4 5 6 7 8 9 9 9 9 8 8 8 9
0 1 2 3 4 3 2 1 0 -0 0 0 0 -0 0 1 1 1 1 1 0 0 0 0 0 0 1 2 3 4 5 5 6 7 8 9 10 10 10 9 9 9 9 10
0 0 1 2 3 3 2 1 0 0 0 -0 -0 -0 0 0 1 1 1 0 0 0 0 0 0 1 2 3 4 5 6 6 8 9 10 10 10 10 10 10 9 10 10 10
0 -0 -0 1 2 2 1 1 0 -0 -1 -1 -1 -0 -0 0 1 1 0 -1 -1 -0 0 0 0 1 3 4 5 6 7 8 9 10 11 11 11 10 10 10 10 10 10 10
-1 -1 -1 -1 0 0 0 0 -0 -1 -1 -1 -1 -1 -0 -0 0 0 -0 -1 -1 -1 -0 0 1 2 4 5 6 7 8 9 10 11 11 11 10 10 10 10 11 11 10 10
-1 -1 -1 -1 -1 -0 0 -0 -0 -1 -1 -1 -1 -1 -1 -0 -0 0 -0 -1 -1 -1 -0 1 2 3 5 6 7 8 10 11 11 11 11 10 10 10 10 10 11 11 10 10
-1 -1 -2 -1 -1 -0 -0 -0 -0 -1 -1 -1 -1 -1 -1 -0 -1 -0 -0 -1 -1 -0 0 2 3 4 6 7 8 10 11 11 11 11 11 10 10 11 11 11 11 11 10 10
-1 -1 -1 -1 -1 -1 -0 -0 0 -0 -1 -1 -1 -1 -0 -1 -1 -1 -1 -0 -0 0 2 3 4 6 7 8 10 11 11 12 11 11 10 11 11 11 11 11 11 11 11 10
-1 -1 -1 -1 -1 -1 -1 0 0 0 -0 -1 -1 -1 -1 -1 -1 -1 -1 -0 0 2 3 5 6 7 8 10 11 11 11 12 12 11 11 12 12 12 11 11 11 11 11 11
-0 -0 -0 -1 -1 -1 -0 1 1 0 -0 -0 -1 -1 -1 -1 -1 -0 -0 0 1 3 4 6 7 8 10 11 11 11 12 12 12 12 12 13 12 12 12 12 11 11 11 11
-0 -0 -0 -1 -2 -1 0 1 0 0 -0 -0 -1 -1 -1 -1 -1 -0 0 1 3 4 5 7 9 10 11 11 12 12 13 13 13 13 13 13 12 12 12 12 12 12 12 12
-0 -1 -1 -1 -2 -1 -0 0 0 0 -0 -1 -1 -1 -1 -1 -1 0 1 2 4 5 7 9 10 11 12 12 12 13 13 13 13 13 13 12 12 12 12 12 12 12 12 12
-0 -1 -1 -1 -2 -2 -1 -1 0 -0 -0 -1 -1 -2 -1 -1 -1 1 2 4 5 7 8 10 11 12 12 13 13 13 13 13 13 13 12 12 12 13 13 13 13 13 12 12
-0 -0 -1 -1 -2 -2 -2 -1 -1 -1 -1 -1 -1 -1 -1 -1 -1 1 3 5 6 8 9 11 12 12 13 13 13 13 13 13 13 13 12 12 13 13 13 13 14 14 13 13
0 -0 -0 -1 -2 -2 -2 -2 -1 -1 -1 -1 -1 -1 -1 -1 0 2 4 6 7 9 10 11 12 12 13 13 13 13 13 13 13 13 13 13 13 13 13 14 15 15 15 15
0 -0 -0 -1 -1 -2 -2 -2 -1 -1 -1 -1 -1 -0 -0 0 1 3 5 6 8 9 11 11 12 12 12 13 13 13 13 13 13 13 13 13 13 13 14 15 16 16 16 16
-0 -0 -1 -1 -1 -1 -1 -1 -1 -0 0 0 0 0 1 1 2 4 5 7 8 10 11 11 11 12 12 12 13 13 13 13 13 13 13 13 13 13 14 15 16 17 17 17
-1 -1 -1 -1 -1 -1 -1 -1 -1 0 1 1 1 1 1 2 3 5 6 7 9 10 11 11 11 11 12 12 12 13 13 13 12 12 13 13 13 14 14 15 16 17 17 17
-1 -1 -1 -0 -1 -1 -1 -1 -0 0 1 1 1 1 2 3 4 5 6 8 9 10 11 11 11 11 12 12 12 13 13 12 12 12 12 13 13 14 14 15 15 16 16 16